Location: Drocourt
(49.0571°N, 1.7669°E)
Time: 00:01:50
(UTC+00:00)

SR - Pass Details

Date: 19 April 2024
Orbit: 579 x 859 km, 66.7° (Epoch: 25 May)

Event Time Altitude Azimuth Distance (km) Brightness Sun altitude
Rises 07:32:10 0° 323° (NW) 3,108 ? 24.9°
Reaches altitude 10° 07:36:10 10° 355° (N) 2,111 ? 25.5°
Maximum altitude 07:38:00 12° 17° (NNE) 1,946 ? 25.8°
Drops below altitude 10° 07:39:46 10° 40° (NE) 2,046 ? 26.1°
Sets 07:43:29 0° 73° (ENE) 2,892 ? 26.7°
